Location: Bucharest
(44.4268°N, 26.1025°E)
Time: 01:42:50
(UTC+03:00)

X-37B - Pass Details

Date: 29 January 2022
Orbit: 329 x 342 km, 45.0° (Epoch: 18 May)

Event Time Altitude Azimuth Distance (km) Brightness Sun altitude
Rises 18:43:18 0° 245° (WSW) 2,113 5.9 -14.9°
Reaches altitude 10° 18:45:20 10° 241° (WSW) 1,275 4.4 -15.3°
Maximum altitude 18:48:08 56° 162° (SSE) 405 0.5 -15.8°
Enters shadow 18:48:40 46° 116° (ESE) 464 0.6 -15.8°
